St.-Anicet, Ontario

6:55 PM EDT on March 26, 2017 (GMT -0400)
St.-Anicet

Weather History for CWBZ - May, 2014

Change the Weather History Date:

Thursday, May 1, 2014

  Actual Average Record
Temperature  
Mean Temperature 52 °F -  
Max Temperature 62 °F - - ()
Min Temperature 43 °F - - ()
Degree Days  
Heating Degree Days 12    
Growing Degree Days 2 (Base 50)    
Moisture  
Dew Point 47 °F    
Average Humidity 85    
Maximum Humidity 99    
Minimum Humidity 57    
Precipitation  
Precipitation 0.12 in - - ()
Sea Level Pressure  
Sea Level Pressure 29.73 in    
Wind  
Wind Speed 7 mph ()    
Max Wind Speed 20 mph    
Max Gust Speed 29 mph    
T = Trace of Precipitation, MM = Missing Value Source: Averaged Metar Reports

Daily Weather History Graph

Daily Weather History Graph

Search for Another Location

Airport or City:

Trip Planner

Search our weather history database for the weather conditions in past years. The results will help you decide how hot, cold, wet, or windy it might be!

Date:

Astronomy

May. 01, 2014 Rise Set
Actual Time 5:46 AM EDT 8:03 PM EDT
Civil Twilight 5:13 AM EDT 8:35 PM EDT
Nautical Twilight 4:33 AM EDT 9:16 PM EDT
Astronomical Twilight 3:48 AM EDT 10:01 PM EDT
Moon 7:29 AM EDT (5/1) 10:36 PM EDT (5/1)
Length of Visible Light 15h 21m
Length of Day
14h 16m
Waxing Crescent, 6% of the Moon is Illuminated
May 1
Waxing Crescent
May 6
First Quarter
May 14
Full
May 21
Last Quarter
May 28
New

Hourly Weather History & Observations

Time (EDT) Temp. Windchill Dew Point Humidity Pressure Visibility Wind Dir Wind Speed Gust Speed Precip Events Conditions
12:00 AM 44.1 °F 39.5 °F 41.9 °F 92% 29.94 in - East 8.1 mph - 0.07 in   Unknown
1:00 AM 43.9 °F 38.8 °F 43.5 °F 99% 29.91 in - ENE 9.2 mph - N/A   Unknown
2:00 AM 44 °F - 44 °F 97% 29.88 in - ENE 6.9 mph - -  
2:00 AM 44.1 °F 40.1 °F 43.5 °F 98% 29.88 in - ENE 6.9 mph - 0.11 in   Unknown
3:00 AM 43.9 °F 40.5 °F 43.2 °F 97% 29.84 in - East 5.8 mph - 0.05 in   Unknown
4:00 AM 44.1 °F 40.1 °F 43.3 °F 97% 29.80 in - East 6.9 mph - N/A   Unknown
5:00 AM 44.6 °F 41.4 °F 43.9 °F 97% 29.78 in - ENE 5.8 mph - N/A   Unknown
6:00 AM 45.0 °F 42.6 °F 44.2 °F 97% 29.76 in - ENE 4.6 mph - N/A   Unknown
7:00 AM 45.1 °F 42.8 °F 44.6 °F 98% 29.74 in - NE 4.6 mph - N/A   Unknown
8:00 AM 46 °F - 45 °F 95% 29.72 in - ENE 4.6 mph - -  
8:00 AM 45.5 °F 43.2 °F 45.0 °F 98% 29.72 in - ENE 4.6 mph - 0.05 in   Unknown
9:00 AM 46.4 °F 45.2 °F 45.9 °F 98% 29.71 in - NE 3.5 mph - N/A   Unknown
10:00 AM 48.0 °F - 47.5 °F 98% 29.70 in - East 1.2 mph - N/A   Unknown
11:00 AM 50.2 °F - 49.1 °F 96% 29.70 in - Calm Calm - N/A   Unknown
12:00 PM 55.9 °F - 54.0 °F 93% 29.68 in - West 5.8 mph - 0.04 in   Unknown
1:00 PM 60.1 °F - 55.8 °F 86% 29.67 in - WSW 11.5 mph 18.4 mph N/A   Unknown
2:00 PM 61 °F - 55 °F 73% 29.66 in - WSW 15.0 mph - -  
2:00 PM 60.8 °F - 54.7 °F 80% 29.66 in - WSW 15.0 mph 23.0 mph N/A   Unknown
3:00 PM 61.2 °F - 54.9 °F 80% 29.65 in - WSW 11.5 mph 18.4 mph N/A   Unknown
4:00 PM 60.4 °F - 54.3 °F 80% 29.65 in - WSW 12.7 mph 20.7 mph N/A   Unknown
5:00 PM 59.7 °F - 51.4 °F 74% 29.65 in - SW 13.8 mph 19.6 mph N/A   Unknown
7:00 PM 58.3 °F - 43.3 °F 58% 29.65 in - SW 19.6 mph 28.8 mph N/A   Unknown
8:00 PM 55 °F - 44 °F 57% 29.68 in - WSW 15.0 mph - -  
8:00 PM 55.4 °F - 44.1 °F 66% 29.68 in - WSW 15.0 mph 20.7 mph N/A   Unknown
9:00 PM 54.1 °F - 41.9 °F 63% 29.69 in - SW 11.5 mph 17.3 mph N/A   Unknown
10:00 PM 52.3 °F - 42.8 °F 70% 29.70 in - SW 10.4 mph - N/A   Unknown
11:00 PM 52.2 °F - 43.0 °F 71% 29.69 in - WSW 9.2 mph - N/A   Unknown